Location: Earls Croome
(52.0667°N, 2.2000°W)
Time: 21:52:31
(UTC+00:00)

ATLAS 2AS CENTAUR R/B - Pass Details

Date: 17 November 2019
Orbit: 926 x 1286 km, 63.7° (Epoch: 02 December)

Event Time Altitude Azimuth Distance (km) Brightness Sun altitude
Exits shadow 03:31:59 49° 8° (N) 1,548 3.5 -36.3°
Maximum altitude 03:32:50 51° 28° (NNE) 1,506 3.5 -36.2°
Drops below altitude 10° 03:39:59 10° 103° (ESE) 3,046 5.7 -35.2°
Sets 03:42:42 0° 109° (ESE) 3,952 6.4 -34.7°
